[[{"header":{"parameterUnit":"m.s-1","parameterCategory":1,"la1":30.2991,"la2":30.254,"lo1":-89.0895,"lo2":-89.0444,"dy":0.0017,"dx":0.0017,"nx":28,"ny":28,"refTime":"2024-07-10T03:00:00:Z","depth":0,"parameterNumber":2,"parameterNumberName":"U-component_of_WINDS"},"data":[0,0,0,0,0,0,0,0,0,0,0,0,0,0,0,0,0,0,0,0,0,0,0,0,0,0,0,0,0,0,0,0,0,0,0,0,0,0,0,0,0,0,0,0,0,0,0,0,0,0,0,0,0,0,0,0,0,0,3.7332,3.7334,0,3.7492,3.7494,3.7496,3.7453,3.7449,3.7446,3.7443,3.7611,3.7618,3.7626,0,0,0,0,0,0,0,0,0,0,0,0,0,3.6989,3.6996,3.7332,3.7334,3.7336,3.7492,3.7494,3.7497,3.7453,3.7449,3.7445,3.7442,3.7609,3.7618,3.7627,0,0,0,0,0,0,0,0,0,0,0,0,0,3.7143,3.6998,3.7331,3.7333,3.7335,3.7492,3.7494,3.7497,3.7454,3.7449,3.7444,3.744,3.7606,3.7617,3.7628,3.7794,0,0,3.7662,3.7667,0,0,0,0,0,0,0,0,3.7134,3.7156,3.7331,3.7333,3.7335,3.7447,3.7435,3.7597,3.7455,3.7409,3.7443,3.7437,3.7561,3.7575,3.7616,3.7802,3.7809,3.7663,3.767,3.7675,3.7678,0,0,0,0,0,0,0,3.7124,3.7149,3.7395,3.7333,3.7336,3.7326,3.7343,3.7466,3.751,3.7413,3.741,3.7429,3.7561,3.7606,3.762,3.7812,3.7663,3.7673,3.768,3.7684,3.814,3.8146,0,0,0,0,0,0,3.7111,3.714,3.739,3.74,3.7221,3.7336,3.7355,3.7416,3.7509,3.7518,3.7433,3.7427,3.7589,3.7607,3.7626,3.7825,3.7675,3.7685,3.7692,3.8135,3.8142,3.8147,0,0,0,0,0,0,3.7104,3.7134,3.7384,3.7269,3.73,3.7347,3.7417,3.7422,3.7466,3.7524,3.7532,3.747,3.7586,3.761,3.7752,3.783,3.769,3.77,3.8129,3.8137,3.8144,3.8226,0,0,0,0,0,0,3.7094,3.7131,3.7195,3.7271,3.7307,3.7507,3.7422,3.7429,3.7486,3.7478,3.7561,3.757,3.7584,3.7735,3.7763,3.7843,3.7709,3.8122,3.8132,3.8142,3.8217,3.8236,3.8252,0,0,0,0,0,3.7082,3.7213,3.7198,3.7229,3.7387,3.7511,3.7532,3.7544,3.7492,3.7556,3.7593,3.7568,3.7818,3.775,3.7781,3.7866,3.8117,3.8129,3.8141,3.8209,3.8232,3.8252,0,0,0,0,0,0,3.7146,3.7223,3.7208,3.7366,3.7433,3.7504,3.7585,3.7569,3.7652,3.7642,3.7654,3.7674,3.7818,3.7857,3.778,3.8031,3.796,3.7979,3.8,3.8023,3.8041,3.8028,3.7719,0,0,0,0,0,3.7178,3.7272,3.7335,3.7469,3.7503,3.7538,3.7593,3.7596,3.7666,3.7694,3.7741,3.7811,3.7905,3.7966,3.8056,3.8222,3.8239,3.8296,3.8314,3.8328,3.8344,3.8433,3.8458,3.8187,3.8187,3.8187,0,0,3.7246,3.73,3.7359,3.7483,3.7534,3.7632,3.7562,3.7669,3.7741,3.7711,3.7847,3.7884,3.7962,3.8116,3.8187,3.8153,3.8423,3.8344,3.8355,3.8363,3.8448,3.8474,3.8496,3.8195,3.8194,3.8193,0,0,3.7419,3.747,3.7586,3.7639,3.7717,3.774,3.7768,3.7842,3.7865,3.8001,3.798,3.8067,3.8229,3.8285,3.8335,3.8528,3.8507,3.8557,3.865,3.8737,3.8758,3.8777,3.8845,3.8869,3.8573,3.8573,3.8573,0,3.7494,3.7639,3.7648,3.7756,3.7811,3.7786,3.7904,3.7955,3.806,3.8099,3.8059,3.826,3.8311,3.8477,3.8524,3.8566,3.8598,3.8547,3.8754,3.8774,3.8791,3.8856,3.8881,3.8578,3.8578,3.8577,3.8577,0,3.7727,3.7828,3.7912,3.8011,3.8076,3.8189,3.8215,3.828,3.8277,3.8304,3.8443,3.8503,3.8604,3.8644,3.8644,3.881,3.8786,3.8751,3.8679,3.8822,3.8883,3.8908,3.8586,3.8584,3.8583,3.8581,0,0,3.7945,3.8046,3.8077,3.8121,3.8205,3.8284,3.8395,3.8492,3.8546,3.862,3.8712,3.8849,3.8816,3.8873,3.8879,3.8955,3.9102,3.891,3.8912,3.8942,3.9287,3.9312,3.934,3.9089,3.9094,3.9098,3.928,0,3.8124,3.8318,3.8329,3.8505,3.8598,3.8575,3.8672,3.8734,3.8763,3.8846,3.8877,3.8973,3.8923,3.8957,3.9031,3.9068,3.9171,3.9055,3.9175,3.9179,3.9155,3.9372,3.94,3.9569,3.9304,3.9308,3.9311,0,3.8359,3.8437,3.8622,3.8691,3.873,3.8817,3.8906,3.8986,3.9056,3.9071,3.9133,3.9128,3.9242,3.9167,3.9324,3.9245,3.9295,3.932,3.9327,3.9338,3.9253,3.9387,3.9623,3.9648,3.9349,3.9346,3.9343,0,3.8497,3.8649,3.8778,3.8817,3.8902,3.8962,3.9001,3.9066,3.9123,3.9201,3.9238,3.933,3.9379,3.945,3.947,3.9414,3.9626,3.9553,3.9641,3.9641,3.9686,3.9683,3.9932,3.9721,3.9721,3.972,3.9719,0,3.8695,3.8809,3.8841,3.8921,3.9047,3.9059,3.9184,3.9218,3.9276,3.9362,3.935,3.9431,3.9452,3.9538,3.9554,3.9681,3.9704,3.9719,3.9722,3.9719,3.9717,3.9751,3.9739,3.9727,3.9725,3.9724,3.9723,0,3.8871,3.8897,3.9036,3.9104,3.9124,3.9214,3.9273,3.9349,3.9375,3.9484,3.9511,3.9552,3.9652,3.9678,3.9798,3.9809,3.9957,3.995,3.9933,3.9932,4.0018,4.0009,4.0297,4.0335,4.0101,4.0103,4.0105,0,3.8995,3.9081,3.9158,3.9214,3.9254,3.9345,3.9402,3.9418,3.9478,3.9564,3.963,3.9727,3.9806,3.9967,4.0008,4.0099,4.0093,4.0187,4.0107,4.0101,4.0092,4.0086,4.0094,4.0202,4.0205,4.0207,4.0209,0,3.9212,3.922,3.9302,3.939,3.9458,3.9528,3.9595,3.9642,3.9666,3.9735,3.9835,3.9896,4.0018,4.0115,4.0207,4.0247,4.0232,4.0234,4.0259,4.0256,4.0242,4.0249,3.9973,4.0227,4.0225,4.0224,4.0223,4.0222,3.9364,3.9439,3.9504,3.9596,3.9648,3.971,3.9785,3.9819,3.9903,4.0001,4.0006,4.0115,4.0182,4.0304,4.0349,4.0435,4.0406,4.0443,4.0452,4.0461,4.0467,4.0229,4.0452,4.0451,4.0451,4.0451,4.045,0,3.9579,3.9619,3.9704,3.9796,3.9869,3.9847,3.992,3.9982,4.0078,4.0141,4.0218,4.0333,4.0427,4.0475,4.0568,4.0627,4.0623,4.0651,4.0646,4.0656,4.0488,4.0456,4.0653,4.0653,4.0653,4.0653,4.0653,4.0653,3.9699,3.9824,3.984,3.999,4.003,4.0135,4.0178,4.0236,4.0286,4.0414,4.0491,4.0521,4.0579,4.0675,4.076,4.0772,4.0806,4.0838,4.0846,4.0688,4.0668,4.0648,4.0618,4.0846,4.0846,4.1006,4.1008,4.1009]},{"header":{"parameterUnit":"m.s-1","parameterCategory":1,"la1":30.2991,"la2":30.254,"lo1":-89.0895,"lo2":-89.0444,"dy":0.0017,"dx":0.0017,"nx":28,"ny":28,"refTime":"2024-07-10T03:00:00:Z","depth":0,"parameterNumber":3,"parameterNumberName":"V-component_of_WINDS"},"data":[0,0,0,0,0,0,0,0,0,0,0,0,0,0,0,0,0,0,0,0,0,0,0,0,0,0,0,0,0,0,0,0,0,0,0,0,0,0,0,0,0,0,0,0,0,0,0,0,0,0,0,0,0,0,0,0,0,0,0.1265,0.1265,0,0.1293,0.1294,0.1294,0.1268,0.1267,0.1266,0.1265,0.1299,0.1301,0.1303,0,0,0,0,0,0,0,0,0,0,0,0,0,0.1192,0.1193,0.1265,0.1265,0.1265,0.1293,0.1294,0.1294,0.1269,0.1267,0.1266,0.1265,0.1299,0.1301,0.1303,0,0,0,0,0,0,0,0,0,0,0,0,0,0.1223,0.1194,0.1265,0.1256,0.1255,0.1293,0.1294,0.1294,0.1269,0.1267,0.1266,0.1264,0.1298,0.1301,0.1304,0.1353,0,0,0.1312,0.1313,0,0,0,0,0,0,0,0,0.1221,0.1225,0.1257,0.1257,0.1256,0.1276,0.1281,0.1314,0.1269,0.1264,0.1265,0.1263,0.1293,0.1296,0.1305,0.1355,0.1356,0.1312,0.1314,0.1315,0.1316,0,0,0,0,0,0,0,0.1219,0.1224,0.1276,0.1257,0.1257,0.1252,0.1254,0.1287,0.1287,0.1264,0.1262,0.1266,0.1293,0.1303,0.1306,0.1357,0.1312,0.1315,0.1317,0.1318,0.1448,0.1449,0,0,0,0,0,0,0.1217,0.1222,0.1275,0.1277,0.1234,0.1254,0.1257,0.1271,0.1287,0.1287,0.1267,0.1265,0.1298,0.1303,0.1307,0.1366,0.1315,0.1318,0.132,0.1446,0.1448,0.145,0,0,0,0,0,0,0.1216,0.1222,0.1274,0.1249,0.1255,0.1257,0.1273,0.1272,0.1282,0.1289,0.1289,0.1277,0.1297,0.1303,0.1341,0.1367,0.1319,0.1322,0.1444,0.1447,0.1449,0.1484,0,0,0,0,0,0,0.1214,0.1222,0.1239,0.125,0.1257,0.1307,0.1274,0.1274,0.1287,0.1284,0.1298,0.1299,0.1297,0.1337,0.1344,0.137,0.1324,0.1442,0.1445,0.1448,0.1481,0.1488,0.1493,0,0,0,0,0,0.1211,0.1249,0.1241,0.1247,0.1279,0.1309,0.1313,0.1307,0.1289,0.1307,0.1312,0.1299,0.1362,0.1341,0.1349,0.1376,0.144,0.1444,0.1448,0.1478,0.1486,0.1493,0,0,0,0,0,0,0.1244,0.1251,0.1241,0.1283,0.1295,0.1304,0.1327,0.1317,0.1335,0.1332,0.1326,0.1329,0.137,0.1377,0.1353,0.1424,0.1399,0.1404,0.1419,0.1427,0.1433,0.1431,0.1327,0,0,0,0,0,0.1256,0.1278,0.1283,0.132,0.1326,0.1326,0.1338,0.1333,0.1346,0.1352,0.1358,0.1373,0.1396,0.1412,0.1433,0.1481,0.1484,0.1503,0.151,0.1515,0.152,0.1546,0.1555,0.1463,0.1463,0.1463,0,0,0.1281,0.1287,0.1302,0.1327,0.1335,0.1359,0.133,0.1357,0.1375,0.1356,0.1392,0.1398,0.1414,0.1457,0.1476,0.1464,0.1546,0.152,0.1524,0.1527,0.1551,0.156,0.1568,0.1466,0.1465,0.1465,0,0,0.134,0.1346,0.1378,0.1387,0.1399,0.1399,0.1406,0.1416,0.1419,0.1455,0.1441,0.1463,0.1503,0.1514,0.1526,0.1587,0.1577,0.1595,0.1629,0.1654,0.1661,0.1668,0.169,0.1698,0.16,0.16,0.16,0,0.137,0.1404,0.1396,0.1423,0.1435,0.1416,0.1449,0.1458,0.1478,0.1487,0.1472,0.1522,0.1531,0.1577,0.1592,0.1601,0.161,0.1594,0.1661,0.1667,0.1673,0.1694,0.1703,0.1602,0.1602,0.1602,0.1601,0,0.1442,0.1466,0.149,0.1507,0.1522,0.1552,0.1548,0.1564,0.1557,0.1559,0.1596,0.1606,0.1629,0.1639,0.1634,0.1685,0.1676,0.1661,0.1635,0.1684,0.1704,0.1712,0.1605,0.1604,0.1604,0.1603,0,0,0.1523,0.1534,0.1543,0.1551,0.1563,0.1582,0.1612,0.1633,0.1647,0.1661,0.1686,0.172,0.1705,0.1718,0.1714,0.1736,0.1785,0.1718,0.1718,0.1731,0.1842,0.1854,0.1863,0.1777,0.1778,0.178,0.1841,0,0.1582,0.1631,0.1624,0.1672,0.1694,0.1677,0.1702,0.1714,0.1715,0.1736,0.1738,0.1762,0.1741,0.1749,0.177,0.1774,0.1807,0.177,0.1802,0.1803,0.1799,0.1874,0.1886,0.1943,0.1848,0.185,0.1851,0,0.1658,0.1673,0.1723,0.1731,0.174,0.1763,0.1782,0.1801,0.1814,0.1813,0.1827,0.1818,0.1849,0.1821,0.1864,0.1838,0.1851,0.1855,0.1857,0.1861,0.183,0.188,0.1961,0.197,0.1863,0.1862,0.1861,0,0.1713,0.1746,0.1779,0.1787,0.1797,0.1814,0.1819,0.183,0.1843,0.186,0.1868,0.1889,0.19,0.1917,0.1915,0.1895,0.1958,0.193,0.196,0.196,0.1975,0.1974,0.206,0.1982,0.1982,0.1982,0.1981,0,0.178,0.1811,0.1804,0.1825,0.186,0.1852,0.1887,0.189,0.19,0.1922,0.1908,0.193,0.1925,0.1947,0.1945,0.1981,0.1986,0.1988,0.1987,0.1989,0.1989,0.1998,0.1995,0.1984,0.1983,0.1983,0.1983,0,0.1847,0.1844,0.1879,0.1886,0.1888,0.1914,0.192,0.194,0.194,0.1969,0.1975,0.1976,0.2001,0.1999,0.2028,0.2027,0.2071,0.2066,0.2067,0.2066,0.2095,0.2093,0.2191,0.2204,0.2116,0.2117,0.2118,0,0.1891,0.1914,0.1923,0.1936,0.1942,0.1963,0.1976,0.1969,0.1983,0.1998,0.2017,0.204,0.2058,0.2099,0.2103,0.2125,0.212,0.2153,0.2124,0.2125,0.2122,0.212,0.2123,0.2159,0.216,0.2161,0.2162,0,0.1969,0.1965,0.1983,0.2001,0.2016,0.203,0.2042,0.2054,0.2048,0.2065,0.2089,0.2103,0.2131,0.2155,0.2175,0.2182,0.2172,0.2171,0.2179,0.2182,0.2182,0.2183,0.2083,0.2169,0.2168,0.2168,0.2167,0.2167,0.2026,0.2046,0.2054,0.2075,0.2083,0.2095,0.2114,0.2116,0.2136,0.2157,0.2152,0.2179,0.2191,0.2218,0.2226,0.2249,0.2237,0.2249,0.2252,0.2255,0.2259,0.2177,0.2252,0.2252,0.2252,0.2252,0.2252,0,0.2103,0.2108,0.2126,0.2143,0.216,0.2146,0.2159,0.2174,0.2198,0.2209,0.2227,0.2255,0.2278,0.2283,0.2305,0.2322,0.2317,0.2328,0.2327,0.2329,0.2267,0.2258,0.2331,0.2331,0.2331,0.2331,0.2331,0.2331,0.2145,0.2178,0.2176,0.2213,0.2218,0.2243,0.2252,0.2263,0.2272,0.2304,0.2322,0.2324,0.2333,0.2356,0.2376,0.2377,0.2386,0.2399,0.2398,0.2341,0.2333,0.2326,0.2317,0.2401,0.2401,0.2458,0.2458,0.2459]}]]